Yakima, WA

6:34 AM PDT on August 16, 2017 (GMT -0700)
Yakima Air Term-McAllister

Weather History for KYKM - July, 2013

Change the Weather History Date:

Monday, July 29, 2013

  Actual Average Record
Temperature  
Mean Temperature 74 °F 72 °F  
Max Temperature 90 °F 90 °F 105 °F (2014)
Min Temperature 58 °F 55 °F 44 °F (1970)
Degree Days  
Heating Degree Days 0 0  
Month to date heating degree days 0 19  
Since 1 June heating degree days 39 117  
Since 1 July heating degree days 0 19  
Cooling Degree Days 9 7  
Month to date cooling degree days 373 176  
Year to date cooling degree days 541 261  
Since 1 June cooling degree days 489 241  
Growing Degree Days 24 (Base 50)    
Moisture  
Dew Point 45 °F    
Average Humidity 38    
Maximum Humidity 62    
Minimum Humidity 13    
Precipitation  
Precipitation 0.00 in 0.01 in 0.08 in (1958)
Month to date precipitation T 0.21  
Year to date precipitation 4.17 4.50  
Snow  
Snow 0.00 in 0.00 in 0.00 in (2002)
Month to date snowfall 0.0 0.0  
Year to date snowfall 1.1 8.6  
Since 1 July snowfall 0.0 0.0  
Snow Depth 0.00 in    
Sea Level Pressure  
Sea Level Pressure 29.86 in    
Wind  
Wind Speed 5 mph (WNW)    
Max Wind Speed 13 mph    
Max Gust Speed 17 mph    
Visibility 10 miles    
Events      
T = Trace of Precipitation, MM = Missing Value Source: NWS Daily Summary

Daily Weather History Graph

Daily Weather History Graph

Search for Another Location

Airport or City:

Trip Planner

Search our weather history database for the weather conditions in past years. The results will help you decide how hot, cold, wet, or windy it might be!

Date:

Astronomy

Jul. 29, 2013 Rise Set
Actual Time 5:39 AM PDT 8:36 PM PDT
Civil Twilight 5:04 AM PDT 9:12 PM PDT
Nautical Twilight 4:18 AM PDT 9:57 PM PDT
Astronomical Twilight 3:23 AM PDT 10:51 PM PDT
Moon No Moon Rise 1:58 PM PDT (7/29)
Length of Visible Light 16h 07m
Length of Day
14h 57m
Waning Gibbous, 50% of the Moon is Illuminated
Jul 29
Waning Gibbous
Aug 6
New
Aug 14
First Quarter
Aug 20
Full
Aug 28
Last Quarter

Hourly Weather History & Observations

Time (PDT) Temp. Dew Point Humidity Pressure Visibility Wind Dir Wind Speed Gust Speed Precip Events Conditions
12:53 AM 66.9 °F 44.1 °F 44% 29.84 in 10.0 mi West 5.8 mph - N/A   Clear
1:53 AM 66.9 °F 46.0 °F 47% 29.84 in 10.0 mi NW 9.2 mph - N/A   Clear
2:53 AM 66.0 °F 45.0 °F 47% 29.85 in 10.0 mi North 8.1 mph - N/A   Clear
3:53 AM 64.0 °F 46.0 °F 52% 29.86 in 10.0 mi NNW 6.9 mph - N/A   Clear
4:53 AM 61.0 °F 46.0 °F 58% 29.87 in 10.0 mi NW 5.8 mph - N/A   Clear
5:53 AM 59.0 °F 46.0 °F 62% 29.88 in 10.0 mi West 8.1 mph - N/A   Clear
6:53 AM 60.1 °F 46.9 °F 62% 29.90 in 10.0 mi West 8.1 mph - N/A   Clear
7:53 AM 63.0 °F 46.9 °F 56% 29.90 in 10.0 mi West 8.1 mph - N/A   Clear
8:53 AM 69.1 °F 46.9 °F 45% 29.91 in 10.0 mi NW 6.9 mph - N/A   Clear
9:53 AM 73.0 °F 48.0 °F 41% 29.89 in 10.0 mi NW 6.9 mph - N/A   Clear
10:53 AM 78.1 °F 48.9 °F 36% 29.88 in 10.0 mi West 4.6 mph - N/A   Clear
11:53 AM 82.0 °F 44.1 °F 26% 29.87 in 9.0 mi Calm Calm - N/A   Clear
12:53 PM 84.9 °F 41.0 °F 21% 29.85 in 10.0 mi Calm Calm - N/A   Clear
1:53 PM 87.1 °F 45.0 °F 23% 29.85 in 10.0 mi Variable 6.9 mph - N/A   Clear
2:53 PM 87.1 °F 39.0 °F 18% 29.83 in 10.0 mi Calm Calm - N/A   Clear
3:53 PM 89.1 °F 32.0 °F 13% 29.83 in 10.0 mi SE 4.6 mph - N/A   Clear
4:53 PM 89.1 °F 39.0 °F 17% 29.81 in 10.0 mi ESE 3.5 mph - N/A   Clear
5:53 PM 88.0 °F 42.1 °F 20% 29.81 in 10.0 mi SE 4.6 mph - N/A   Clear
6:53 PM 84.9 °F 45.0 °F 25% 29.81 in 9.0 mi South 5.8 mph - N/A   Clear
7:53 PM 82.9 °F 44.1 °F 25% 29.82 in 10.0 mi Calm Calm - N/A   Clear
8:53 PM 73.9 °F 45.0 °F 35% 29.84 in 9.0 mi Calm Calm - N/A   Clear
9:53 PM 75.9 °F 51.1 °F 42% 29.86 in 10.0 mi West 6.9 mph - N/A   Clear
10:53 PM 75.9 °F 51.1 °F 42% 29.88 in 10.0 mi WNW 5.8 mph - N/A   Clear
11:53 PM 73.9 °F 52.0 °F 46% 29.89 in 10.0 mi West 3.5 mph - N/A   Clear